RYR7EX EGSS-EGPH

Flight info

Callsign RYR7EX
Flight time 0h 55m
Altitude 32000
Route UTAVA1S UTAVA Q75 BUZAD T420 TNT UN57 POL UN601 RIBEL DCT INPIP INPIP1E
Aircraft B738/M-SDE2E3FGHIRWXY/LB1

Departure

Time 2026-04-23 19:41
Airport London Stansted Airport (EGSS)

Arrival

Time 2026-04-23 20:36
Airport Edinburgh Airport (EGPH)
Time Latitude Longitude Altitude Speed Heading
2026-04-23 19:13 51.89374 0.25997 354 ft 0 kts 223°
2026-04-23 19:27 51.89392 0.26022 350 ft 3 kts 223°
2026-04-23 19:28 51.89402 0.26084 356 ft 4 kts 312°
2026-04-23 19:28 51.89389 0.26106 358 ft 0 kts 313°
2026-04-23 19:32 51.89392 0.26101 358 ft 3 kts 313°
2026-04-23 19:32 51.89417 0.26057 353 ft 8 kts 313°
2026-04-23 19:32 51.89467 0.25971 348 ft 13 kts 313°
2026-04-23 19:32 51.89528 0.25850 350 ft 14 kts 288°
2026-04-23 19:33 51.89474 0.25726 352 ft 14 kts 223°
2026-04-23 19:33 51.89386 0.25593 356 ft 22 kts 223°
2026-04-23 19:33 51.89097 0.25160 351 ft 33 kts 223°
2026-04-23 19:34 51.88933 0.24914 348 ft 31 kts 223°
2026-04-23 19:34 51.88779 0.24682 350 ft 29 kts 223°
2026-04-23 19:34 51.88498 0.24261 355 ft 26 kts 223°
2026-04-23 19:35 51.88370 0.24070 348 ft 24 kts 223°
2026-04-23 19:35 51.88252 0.23891 348 ft 23 kts 223°
2026-04-23 19:35 51.88139 0.23722 355 ft 22 kts 222°
2026-04-23 19:35 51.88026 0.23552 350 ft 23 kts 223°
2026-04-23 19:36 51.87904 0.23370 351 ft 25 kts 223°
2026-04-23 19:36 51.87778 0.23181 353 ft 21 kts 223°
2026-04-23 19:36 51.87743 0.23013 355 ft 16 kts 311°
2026-04-23 19:36 51.87823 0.22873 350 ft 18 kts 313°
2026-04-23 19:37 51.87864 0.22802 350 ft 2 kts 312°
2026-04-23 19:37 51.87865 0.22800 350 ft 0 kts 312°
2026-04-23 19:39 51.87893 0.22751 351 ft 14 kts 312°
2026-04-23 19:40 51.87978 0.22695 339 ft 16 kts 26°
2026-04-23 19:40 51.88100 0.22879 336 ft 47 kts 43°
2026-04-23 19:40 51.88526 0.23518 340 ft 117 kts 43°
2026-04-23 19:40 51.89256 0.24612 419 ft 165 kts 44°
2026-04-23 19:41 51.90109 0.25902 1158 ft 167 kts 45°
2026-04-23 19:41 51.90965 0.27192 1924 ft 178 kts 45°
2026-04-23 19:41 51.91920 0.28636 2440 ft 192 kts 44°
2026-04-23 19:41 51.93107 0.29757 2976 ft 206 kts 19°
2026-04-23 19:42 51.94599 0.29927 3399 ft 229 kts
2026-04-23 19:42 51.96265 0.29836 3816 ft 248 kts
2026-04-23 19:42 51.98044 0.29811 4405 ft 261 kts
2026-04-23 19:42 51.99882 0.29716 4921 ft 267 kts
2026-04-23 19:43 52.01736 0.29613 5293 ft 267 kts
2026-04-23 19:43 52.03588 0.29517 5413 ft 268 kts
2026-04-23 19:43 52.05440 0.29420 5740 ft 266 kts
2026-04-23 19:43 52.07300 0.29328 6076 ft 270 kts
2026-04-23 19:44 52.09186 0.29242 6411 ft 272 kts
2026-04-23 19:44 52.11084 0.29156 6747 ft 273 kts
2026-04-23 19:44 52.12981 0.29075 7094 ft 272 kts
2026-04-23 19:44 52.14862 0.28767 7437 ft 274 kts 345°
2026-04-23 19:45 52.16511 0.27212 7800 ft 280 kts 317°
2026-04-23 19:45 52.17689 0.24616 8212 ft 290 kts 303°
2026-04-23 19:45 52.18701 0.21795 8584 ft 292 kts 301°
2026-04-23 19:45 52.19702 0.18915 8958 ft 292 kts 301°
2026-04-23 19:46 52.20699 0.16024 9341 ft 293 kts 301°
2026-04-23 19:46 52.21703 0.13099 9603 ft 297 kts 301°
2026-04-23 19:46 52.22718 0.10136 9874 ft 300 kts 301°
2026-04-23 19:46 52.23741 0.07147 10141 ft 302 kts 301°
2026-04-23 19:47 52.24433 0.05125 10310 ft 302 kts 301°
2026-04-23 19:47 52.25787 0.01161 10546 ft 298 kts 301°
2026-04-23 19:47 52.26791 -0.01785 10848 ft 300 kts 301°
2026-04-23 19:47 52.27815 -0.04787 11082 ft 302 kts 301°
2026-04-23 19:48 52.28849 -0.07812 11305 ft 312 kts 301°
2026-04-23 19:48 52.29948 -0.11015 11487 ft 334 kts 301°
2026-04-23 19:48 52.31123 -0.14424 11679 ft 355 kts 301°
2026-04-23 19:48 52.32357 -0.18008 12140 ft 365 kts 301°
2026-04-23 19:49 52.33606 -0.21650 12822 ft 369 kts 301°
2026-04-23 19:49 52.34861 -0.25320 13559 ft 371 kts 301°
2026-04-23 19:49 52.36127 -0.29026 14310 ft 375 kts 301°
2026-04-23 19:49 52.37391 -0.32722 14962 ft 379 kts 301°
2026-04-23 19:50 52.38684 -0.36500 15636 ft 383 kts 301°
2026-04-23 19:50 52.40029 -0.40296 16331 ft 385 kts 305°
2026-04-23 19:50 52.41689 -0.43757 17033 ft 388 kts 312°
2026-04-23 19:50 52.43480 -0.47097 17681 ft 392 kts 313°
2026-04-23 19:51 52.45312 -0.50452 18346 ft 396 kts 313°
2026-04-23 19:51 52.47150 -0.53834 19007 ft 399 kts 312°
2026-04-23 19:51 52.48999 -0.57271 19489 ft 405 kts 311°
2026-04-23 19:51 52.50872 -0.60791 19997 ft 410 kts 311°
2026-04-23 19:52 52.52112 -0.63138 20412 ft 411 kts 310°
2026-04-23 19:52 52.54599 -0.67873 21223 ft 414 kts 310°
2026-04-23 19:52 52.56484 -0.71480 21789 ft 418 kts 309°
2026-04-23 19:52 52.58385 -0.75125 22266 ft 423 kts 309°
2026-04-23 19:53 52.60306 -0.78817 22760 ft 427 kts 309°
2026-04-23 19:53 52.62245 -0.82547 23266 ft 431 kts 308°
2026-04-23 19:53 52.64202 -0.86318 23776 ft 435 kts 308°
2026-04-23 19:53 52.66180 -0.90134 24221 ft 438 kts 308°
2026-04-23 19:54 52.68166 -0.93969 24581 ft 442 kts 308°
2026-04-23 19:54 52.70170 -0.97848 24978 ft 445 kts 308°
2026-04-23 19:54 52.72183 -1.01747 25407 ft 447 kts 309°
2026-04-23 19:54 52.74181 -1.05624 26161 ft 442 kts 309°
2026-04-23 19:55 52.76188 -1.09522 26490 ft 447 kts 309°
2026-04-23 19:55 52.78185 -1.13408 26809 ft 451 kts 309°
2026-04-23 19:55 52.80219 -1.17373 27193 ft 454 kts 309°
2026-04-23 19:55 52.82268 -1.21376 27571 ft 456 kts 309°
2026-04-23 19:56 52.84323 -1.25394 27922 ft 459 kts 309°
2026-04-23 19:56 52.86398 -1.29459 28261 ft 462 kts 309°
2026-04-23 19:56 52.88479 -1.33543 28608 ft 465 kts 309°
2026-04-23 19:56 52.90567 -1.37647 28965 ft 467 kts 309°
2026-04-23 19:57 52.92633 -1.41715 29446 ft 466 kts 308°
2026-04-23 19:57 52.94040 -1.44488 29803 ft 465 kts 308°
2026-04-23 19:57 52.96115 -1.48583 30334 ft 463 kts 308°
2026-04-23 19:57 52.98850 -1.53994 31036 ft 455 kts 310°
2026-04-23 19:58 53.00835 -1.57930 32110 ft 440 kts 311°
2026-04-23 19:58 53.02166 -1.60569 32293 ft 441 kts 311°
2026-04-23 19:58 53.04282 -1.64276 32433 ft 444 kts 320°
2026-04-23 19:59 53.09461 -1.69712 32443 ft 442 kts 339°
2026-04-23 19:59 53.15201 -1.73240 32454 ft 439 kts 341°
2026-04-23 20:00 53.20949 -1.76685 32455 ft 438 kts 341°
2026-04-23 20:00 53.26662 -1.80190 32457 ft 437 kts 340°
2026-04-23 20:01 53.32356 -1.83736 32460 ft 436 kts 340°
2026-04-23 20:01 53.38047 -1.87301 32462 ft 436 kts 340°
2026-04-23 20:02 53.43696 -1.90848 32449 ft 436 kts 340°
2026-04-23 20:02 53.49386 -1.94430 32463 ft 437 kts 340°
2026-04-23 20:03 53.55079 -1.98024 32459 ft 437 kts 340°
2026-04-23 20:03 53.60774 -2.01629 32467 ft 438 kts 340°
2026-04-23 20:04 53.66491 -2.05260 32453 ft 439 kts 340°
2026-04-23 20:04 53.72201 -2.08894 32459 ft 437 kts 341°
2026-04-23 20:04 53.75006 -2.10691 32428 ft 425 kts 340°
2026-04-23 20:05 53.77721 -2.12529 32446 ft 418 kts 339°
2026-04-23 20:05 53.83118 -2.16294 32463 ft 420 kts 339°
2026-04-23 20:06 53.88552 -2.20049 32455 ft 423 kts 340°
2026-04-23 20:06 53.93982 -2.23763 32463 ft 425 kts 340°
2026-04-23 20:07 53.99484 -2.27539 32454 ft 426 kts 339°
2026-04-23 20:07 54.04998 -2.31338 32459 ft 427 kts 339°
2026-04-23 20:08 54.10516 -2.35145 32445 ft 427 kts 339°
2026-04-23 20:08 54.16033 -2.38963 32450 ft 427 kts 339°
2026-04-23 20:09 54.21486 -2.42749 32449 ft 426 kts 339°
2026-04-23 20:09 54.26975 -2.46569 32455 ft 425 kts 339°
2026-04-23 20:10 54.32444 -2.50389 32450 ft 424 kts 339°
2026-04-23 20:10 54.37908 -2.54215 32455 ft 423 kts 339°
2026-04-23 20:11 54.43322 -2.58016 32451 ft 423 kts 339°
2026-04-23 20:11 54.48759 -2.61845 32443 ft 423 kts 339°
2026-04-23 20:12 54.54205 -2.65692 32077 ft 420 kts 339°
2026-04-23 20:12 54.56882 -2.67588 31674 ft 414 kts 339°
2026-04-23 20:12 54.59529 -2.69465 31272 ft 409 kts 339°
2026-04-23 20:12 54.62156 -2.71330 30848 ft 406 kts 339°
2026-04-23 20:13 54.64758 -2.73179 30411 ft 403 kts 339°
2026-04-23 20:13 54.67341 -2.75018 29912 ft 400 kts 339°
2026-04-23 20:13 54.69901 -2.76842 29478 ft 395 kts 339°
2026-04-23 20:13 54.72401 -2.78627 29031 ft 392 kts 339°
2026-04-23 20:14 54.74937 -2.80439 28600 ft 388 kts 338°
2026-04-23 20:14 54.77391 -2.82196 28163 ft 385 kts 338°
2026-04-23 20:14 54.79858 -2.83963 27739 ft 382 kts 338°
2026-04-23 20:14 54.82304 -2.85718 27315 ft 379 kts 338°
2026-04-23 20:15 54.84737 -2.87466 26902 ft 377 kts 338°
2026-04-23 20:15 54.87148 -2.89200 26480 ft 372 kts 338°
2026-04-23 20:15 54.89525 -2.90915 25998 ft 368 kts 338°
2026-04-23 20:15 54.91883 -2.92622 25487 ft 365 kts 338°
2026-04-23 20:16 54.94216 -2.94314 24995 ft 361 kts 338°
2026-04-23 20:16 54.96527 -2.95993 24501 ft 358 kts 338°
2026-04-23 20:16 54.98819 -2.97659 24017 ft 356 kts 338°
2026-04-23 20:16 55.01103 -2.99321 23433 ft 354 kts 338°
2026-04-23 20:17 55.03339 -3.00950 22916 ft 351 kts 338°
2026-04-23 20:17 55.05579 -3.02585 22435 ft 347 kts 338°
2026-04-23 20:17 55.07797 -3.04205 21943 ft 344 kts 338°
2026-04-23 20:17 55.09994 -3.05811 21466 ft 341 kts 337°
2026-04-23 20:18 55.12190 -3.07418 20948 ft 343 kts 337°
2026-04-23 20:18 55.14398 -3.09036 20411 ft 345 kts 337°
2026-04-23 20:18 55.16608 -3.10657 19873 ft 343 kts 337°
2026-04-23 20:18 55.18810 -3.12271 19353 ft 342 kts 337°
2026-04-23 20:19 55.21001 -3.13879 18835 ft 341 kts 336°
2026-04-23 20:19 55.23180 -3.15479 18267 ft 338 kts 336°
2026-04-23 20:19 55.25339 -3.17067 17679 ft 334 kts 336°
2026-04-23 20:19 55.27478 -3.18642 17095 ft 331 kts 336°
2026-04-23 20:20 55.29620 -3.20060 16598 ft 327 kts 347°
2026-04-23 20:20 55.31848 -3.20268 16245 ft 319 kts
2026-04-23 20:20 55.34048 -3.19947 15764 ft 315 kts
2026-04-23 20:20 55.36223 -3.19567 15274 ft 313 kts
2026-04-23 20:21 55.38377 -3.19186 14809 ft 311 kts
2026-04-23 20:21 55.40499 -3.18821 14340 ft 309 kts
2026-04-23 20:21 55.42631 -3.18465 13818 ft 307 kts
2026-04-23 20:21 55.44747 -3.18121 13313 ft 304 kts
2026-04-23 20:22 55.46847 -3.17785 12826 ft 302 kts
2026-04-23 20:22 55.48936 -3.17454 12349 ft 300 kts
2026-04-23 20:22 55.51007 -3.17127 11872 ft 298 kts
2026-04-23 20:22 55.53066 -3.16802 11416 ft 294 kts
2026-04-23 20:23 55.55067 -3.16486 11009 ft 283 kts
2026-04-23 20:23 55.56992 -3.16182 10586 ft 273 kts
2026-04-23 20:23 55.58862 -3.15887 10124 ft 267 kts
2026-04-23 20:23 55.60704 -3.15597 9647 ft 264 kts
2026-04-23 20:24 55.62508 -3.15313 9178 ft 257 kts
2026-04-23 20:24 55.64270 -3.15034 8705 ft 252 kts
2026-04-23 20:24 55.66004 -3.14759 8255 ft 249 kts
2026-04-23 20:24 55.67732 -3.14487 7818 ft 248 kts
2026-04-23 20:25 55.69416 -3.14871 7446 ft 244 kts 334°
2026-04-23 20:25 55.70719 -3.16722 7069 ft 243 kts 303°
2026-04-23 20:25 55.71383 -3.19404 6697 ft 238 kts 286°
2026-04-23 20:25 55.71835 -3.22167 6388 ft 229 kts 284°
2026-04-23 20:26 55.72256 -3.24857 6125 ft 225 kts 284°
2026-04-23 20:26 55.72672 -3.27528 5872 ft 223 kts 284°
2026-04-23 20:26 55.73079 -3.30142 5612 ft 217 kts 284°
2026-04-23 20:26 55.73478 -3.32700 5349 ft 211 kts 284°
2026-04-23 20:27 55.73864 -3.35179 5087 ft 206 kts 284°
2026-04-23 20:27 55.74234 -3.37580 4829 ft 202 kts 284°
2026-04-23 20:27 55.74605 -3.39965 4565 ft 199 kts 284°
2026-04-23 20:27 55.74971 -3.42307 4309 ft 196 kts 284°
2026-04-23 20:28 55.75331 -3.44619 4071 ft 192 kts 284°
2026-04-23 20:28 55.75686 -3.46911 4025 ft 193 kts 284°
2026-04-23 20:28 55.76039 -3.49202 3997 ft 191 kts 284°
2026-04-23 20:28 55.76390 -3.51463 3991 ft 190 kts 284°
2026-04-23 20:29 55.76746 -3.53734 4003 ft 192 kts 284°
2026-04-23 20:29 55.77112 -3.56025 4001 ft 193 kts 284°
2026-04-23 20:29 55.77482 -3.58311 3997 ft 193 kts 284°
2026-04-23 20:29 55.77849 -3.60569 3990 ft 193 kts 284°
2026-04-23 20:30 55.78221 -3.62858 3998 ft 193 kts 284°
2026-04-23 20:30 55.78961 -3.67454 3991 ft 193 kts 284°
2026-04-23 20:30 55.79555 -3.69581 3977 ft 195 kts 315°
2026-04-23 20:31 55.80671 -3.70912 4009 ft 193 kts 329°
2026-04-23 20:31 55.81919 -3.71758 3970 ft 194 kts
2026-04-23 20:31 55.83116 -3.70877 3994 ft 188 kts 47°
2026-04-23 20:31 55.83967 -3.69058 3993 ft 195 kts 52°
2026-04-23 20:32 55.84817 -3.67140 3819 ft 200 kts 54°
2026-04-23 20:32 55.85594 -3.65112 3565 ft 196 kts 59°
2026-04-23 20:32 55.86304 -3.63057 3297 ft 193 kts 60°
2026-04-23 20:32 55.86989 -3.61021 3030 ft 190 kts 60°
2026-04-23 20:33 55.87661 -3.59018 2805 ft 187 kts 60°
2026-04-23 20:33 55.88307 -3.57097 2544 ft 179 kts 60°
2026-04-23 20:33 55.88927 -3.55255 2304 ft 168 kts 61°
2026-04-23 20:33 55.89514 -3.53507 2098 ft 160 kts 61°
2026-04-23 20:34 55.90065 -3.51870 1865 ft 148 kts 61°
2026-04-23 20:34 55.90584 -3.50316 1677 ft 144 kts 61°
2026-04-23 20:34 55.91086 -3.48785 1477 ft 141 kts 61°
2026-04-23 20:34 55.91602 -3.47270 1267 ft 144 kts 59°
2026-04-23 20:35 55.92129 -3.45746 1067 ft 144 kts 60°
2026-04-23 20:35 55.92634 -3.44240 879 ft 140 kts 60°
2026-04-23 20:35 55.93132 -3.42762 702 ft 138 kts 59°
2026-04-23 20:35 55.93620 -3.41310 496 ft 139 kts 59°
2026-04-23 20:36 55.94126 -3.39828 313 ft 139 kts 59°
2026-04-23 20:36 55.94626 -3.38346 118 ft 138 kts 59°
2026-04-23 20:36 55.95056 -3.37078 107 ft 92 kts 59°
2026-04-23 20:36 55.95244 -3.36526 102 ft 19 kts 58°
2026-04-23 20:37 55.95202 -3.36359 101 ft 17 kts 150°
2026-04-23 20:37 55.95161 -3.36316 103 ft 5 kts 149°
2026-04-23 20:37 55.95131 -3.36322 103 ft 5 kts 216°
2026-04-23 20:37 55.95107 -3.36363 105 ft 5 kts 227°
2026-04-23 20:38 55.95078 -3.36397 106 ft 6 kts 192°
2026-04-23 20:38 55.95026 -3.36388 106 ft 8 kts 192°
2026-04-23 20:38 55.94991 -3.36464 106 ft 6 kts 247°
2026-04-23 20:38 55.94966 -3.36477 105 ft 4 kts 163°
2026-04-23 20:39 55.94940 -3.36450 105 ft 4 kts 146°
2026-04-23 20:39 55.94929 -3.36438 105 ft 0 kts 149°
2026-04-23 20:39 55.94926 -3.36435 105 ft 1 kts 149°
2026-04-23 20:39 55.94925 -3.36433 104 ft 0 kts 149°